Showing default

JILIN-01-07, 43159

Orbit data source: Space-Track

JILIN-01-07, 43159 is a Chinese payload satellite in SSO that was launched on Fri, 19 Jan 2018 UTC via a CHANG ZHENG 11 launch vehicle from the Jiuquan Satellite Launch Center, China (JSC). Payloads include a variety of satellites, spacecraft, and rockets equipped with specific instruments for various scientific and technological missions. These include communications satellites like Starlink; space stations such as the ISS; scientific satellites like the Hubble; Earth observation satellites from companies like Planet Labs, Umbra, and HawkEye 360; GPS; miniature CubeSats for education and research; and military/defense satellites.

Loading next visibility...
JILIN-01-07 details
Identifier
43159, 2018-008E
Orbit
SSO
Last TLE update6 hours ago
Origin
Flag of CNCGSTZ/CGSTL (CN / PRC)
ManufacturerChangguang WJ
MissionOperational Commercial Imaging
Bus & MotorJL-1, Unknown motor
Mass95 kg wet, 95 kg dry
Launch date (UTC)
2018-01-19 (7 years ago)
Launch vehicle
CHANG ZHENG 11
Launch site
Jiuquan Satellite Launch Center, China (JSC)
Object type
Payload
Rocket body
Debris
Shape & HBRBox + 2 Pan, 1.5 m
Radar Cross Section2.000 m², Medium (>0.1 m² and < 1m²)

Expand to show TLE details & history

TLE from 6 hours ago
0 JILIN-01-07
1 43159U 18008E   24361.27913633  .00012918  00000-0  53645-3 0  9996
2 43159  97.2262  27.0393 0010612 166.4055 193.7471 15.23901899382779
Epoch: 2024-12-26T06:41Z
Definitive object data (Epoch: 2024-12-26T06:41:57.378Z)
Latitude-0.00001°
Longitude-168.71059°
Altitude504.271 km
Speed7.608 km/s
True Right ascension01h 48m 09s
True Declination0° 00' 00"
Sunlit
Object was in daylight at TLE epoch
Visualization TLE readout
Latitude-25.34348°
Longitude8.09144°
Altitude498.053 km
Speed7.617 km/s
Apparent Right ascension16h 58m 17s
Apparent Declination-66° 35' 50"
Sunlit
Object is in daylight
Visualization observer readout
Local Sidereal Time11:40:58
Azimuth152.54° SSE
Elevation-32.173°
Doppler factor1
Orbital elements
Apogee altitude498.327 km
Perigee altitude483.748 km
Semi-major axis6,869.175 km
Eccentricity0.0010612
Inclination97.2262°
RAAN27.0393°
Arg. of periapsis166.4055°
True anomaly193.71824°
Mean anomaly193.7471°
Eccentric anomaly193.73267°
Mean motion3.81229 °/min
BSTAR0.00053645
Orbital period94.43 mins
Loading maneuver chart data...
Loading historical data...
Loading historical data...
Loading historical data...
Loading historical data...
Loading historical data...
Loading historical data...
Loading historical data...

JILIN-01-07 Visibility forecast

Observer location: undefined°, undefined

Span
Click to sort rows by Start time (UTC) header in descending order
Start Az.
Max El. time (UTC)
Max El. Az.
Max El.
End time (UTC)
End Az.
6 mins2024-12-26 15:08:29.080Z355.708° N2024-12-26 15:11:29.080Z266.654° W35.635°2024-12-26 15:14:29.080Z211.42° SW
5 mins2024-12-27 01:45:29.080Z142.629° SSE2024-12-27 01:47:29.080Z66.753° ENE38.782°2024-12-27 01:50:29.080Z359.554° N
|